FENGYUN 1C DEB, 31714

Orbit data source: Space-Track

FENGYUN 1C DEB, 31714 is space debris in SSO originally from a launch on Mon, 10 May 1999 UTC launched from the Taiyaun Space Center, China (TSC). Fengyun 1C debris stems from the Chinese weather satellite Fengyun-1C, which was intentionally destroyed by a Chinese anti-satellite missile in 2007. This event dramatically increased the amount of space debris, with thousands of trackable fragments posing hazards to satellites and human spaceflight. The Fengyun 1C debris cloud has become a focal point in discussions about space sustainability and the need for international regulations to prevent the creation of new debris.

Loading next visibility...
Identifier
31714, 1999-025CDM
Orbit
SSO
Country
Flag of CNCN / PRC
Related business
Manufacturer
Unknown
Mission
Spacecraft
Bus & Motor
Unknown
Mass
Unknown
Launch date (UTC)
1999-05-10 (27 years ago)
Launch vehicle
Unknown
Launch site
Taiyaun Space Center, China (TSC)
Object type
Payload
Rocket body
Debris
Shape & HBR
Unknown shape, 0.1 m
Radar Cross Section
Small (<0.1 m²)

Expand to show TLE details & history
Last TLE update: 1 week ago

TLE from 1 week ago
0 FENGYUN 1C DEB
1 31714U 99025CDM 26151.78670601  .00431158  00000-0  12210-1 0  9990
2 31714  99.0185  85.8699 0018429 116.1597 244.1539 15.34344149986097
Epoch: 2026-05-31T18:52Z
TLE epoch observation values (Epoch: 2026-05-31T18:52:51.399Z)
Latitude
Longitude
-86.62764°
Altitude
471.444 km
Speed
7.627 km/s
True Right ascension
05h 43m 28s
True Declination
0° 00' 00"
Sunlit
Object was in daylight at epoch
Visualization orbit readout
Latitude
Unknown
Longitude
Unknown
Altitude
Unknown
Speed
Unknown
Apparent Right ascension
Unknown
Apparent Declination
Unknown
Sunlit
N/A
Visualization observer readout
Local Sidereal Time
06:06:49
Azimuth
Unknown
Elevation
Unknown
Doppler factor
Unknown
Orbital elements
Apogee altitude
472.495 km
Perigee altitude
447.291 km
Semi-major axis
6,838.03 km
Eccentricity
0.00184
Inclination
99.0185°
RAAN
85.8699°
Arg. of periapsis
116.1597°
True anomaly
243.96404°
Mean anomaly
244.1539°
Eccentric anomaly
244.05895°
Mean motion
3.83837 °/min
Orbital period
93.79 mins
BSTAR
0.01221
Loading maneuver chart data...
Computing Atmospheric mass density...
Loading historical data...
Loading historical data...
Loading historical data...
Loading historical data...
Loading historical data...
Loading historical data...
Loading historical data...

Documentation

Showing up to 5 results
|